• Join FlightAware (Why Join?)
  • Login
  • US Flag 
Rudolph Flight #1: Arrived! 
09:28PM EST


 

Airport Tracker/Info


-or-


 

Live Flight TrackerFlight Track Log ✈ ASQ4273 ✈ 26-Jun-2013 ✈ KALB - KCLE

Flight Track Log - Related Links

Times and Time Zones

All times are in EDT time to prevent confusion due to time zone crossing. See the ASQ4273 flight status page for this flight to view local times or setup timezone preferences in your user account.

Time Position Orientation Groundspeed Altitude Reporting Facility
EDT Latitude Longitude Course Direction KTS MPH feet Rate Location/Type
05:16PM 42.8231 -73.8556 328° Northwest 189 217 3,900  Level Boston Center
05:17PM 42.8023 -74.1781 285° West  Level FlightAware Approximate
05:17PM 42.8619 -73.9103 314° West 219 252 5,900  Level Boston Center
05:18PM 42.8278 -74.3055 285° West  Level FlightAware Approximate
05:18PM 42.9050 -73.9622 319° Northwest 231 266 8,000  Level Boston Center
05:19PM 42.8502 -74.4341 283° West  Level FlightAware Approximate
05:19PM 42.9603 -74.0317 317° Northwest 238 274 9,800  Level Boston Center
05:20PM 42.8836 -74.5522 281° West  Level FlightAware Approximate
05:20PM 43.0156 -74.1014 317° Northwest 280 322 10,600  Level Boston Center
05:21PM 43.0914 -74.1944 318° Northwest 321 369 12,000 1,380 Climbing Boston Center
05:22PM 43.1525 -74.2728 317° Northwest 321 369 13,400 1,800 Climbing Boston Center
05:23PM 43.2219 -74.3633 316° Northwest 321 369 15,700 1,740 Climbing Boston Center
05:24PM 43.2622 -74.4558 301° West 316 364 16,900 1,140 Climbing Boston Center
05:25PM 43.2597 -74.5811 268° West 303 349 18,000 1,140 Climbing Boston Center
05:26PM 43.2531 -74.7122 266° West 321 369 19,200 1,140 Climbing Boston Center
05:27PM 43.2461 -74.8517 266° West 349 402 20,300 1,020 Climbing Boston Center
05:28PM 43.2389 -74.9908 266° West 364 419 21,300 1,020 Climbing Boston Center
05:29PM 43.2272 -75.1300 263° West 371 427 22,400 1,080 Climbing Boston Center
05:30PM 43.2172 -75.2864 265° West 371 427 23,500 1,080 Climbing Boston Center
05:31PM 43.2114 -75.4314 267° West 376 433 24,600 1,020 Climbing Boston Center
05:32PM 43.2036 -75.5736 266° West 381 438 25,600 600 Climbing Boston Center
05:33PM 43.1903 -75.7494 264° West 387 445 26,000 180 Climbing Boston Center
05:34PM 43.1817 -75.9000 266° West 393 452 26,000  Level Boston Center
05:35PM 43.1706 -76.0558 264° West 405 466 26,000 180 Level Boston Center
05:36PM 43.1569 -76.2147 263° West 412 474 26,400 1,020 Climbing Boston Center
05:38PM 43.0639 -76.5136 247° West 409 471 29,400 1,260 Climbing Cleveland Center
05:39PM 43.0206 -76.6469 246° West 394 453 30,700 1,200 Climbing Cleveland Center
05:40PM 42.9753 -76.7861 246° West 371 427 31,900 600 Climbing Cleveland Center
05:41PM 42.9317 -76.9222 246° West 371 427 32,000  Climbing Cleveland Center
05:42PM 42.8819 -77.0667 245° Southwest 394 453 32,000  Level Cleveland Center
05:43PM 42.8217 -77.2089 240° Southwest 420 483 32,000  Level Cleveland Center
05:44PM 42.7592 -77.3564 240° Southwest 443 510 32,000  Level Cleveland Center
05:45PM 42.6983 -77.5008 240° Southwest 449 517 32,000  Level Cleveland Center
05:46PM 42.6417 -77.6392 241° Southwest 458 527 32,000  Level Cleveland Center
05:47PM 42.5806 -77.7831 240° Southwest 451 519 32,000  Level Cleveland Center
05:48PM 42.5150 -77.9239 238° Southwest 446 513 32,000  Level Cleveland Center
05:49PM 42.4536 -78.0672 240° Southwest 446 513 32,000  Level Cleveland Center
05:50PM 42.3900 -78.2106 239° Southwest 446 513 32,000  Level Cleveland Center
05:51PM 42.3242 -78.3617 240° Southwest 453 521 32,000  Level Cleveland Center
05:52PM 42.2622 -78.5042 240° Southwest 453 521 32,000  Level Cleveland Center
05:53PM 42.1981 -78.6492 239° Southwest 453 521 32,000  Level Cleveland Center
05:54PM 42.1317 -78.7942 238° Southwest 453 521 32,000  Level Cleveland Center
05:55PM 42.0817 -78.9439 246° West 448 516 32,000  Level Cleveland Center
05:56PM 42.0400 -79.1042 251° West 443 510 32,000  Level Cleveland Center
05:57PM 42.0044 -79.2586 253° West 448 516 32,000  Level Cleveland Center
05:58PM 41.9644 -79.4214 252° West 448 516 32,000 -420 Level Cleveland Center
05:59PM 41.9264 -79.5758 252° West 448 516 31,200 -1,080 Descending Cleveland Center
06:00PM 41.8797 -79.7492 250° West 448 516 29,900 -1,260 Descending Cleveland Center
06:01PM 41.8475 -79.8947 253° West 453 521 28,700 -1,740 Descending Cleveland Center
06:02PM 41.8044 -80.0539 250° West 458 527 26,500 -2,340 Descending Cleveland Center
06:03PM 41.7633 -80.2186 252° West 463 533 24,100 -2,400 Descending Cleveland Center
06:04PM 41.7222 -80.3772 251° West 463 533 21,700 -2,400 Descending Cleveland Center
06:05PM 41.6806 -80.5331 250° West 463 533 19,300 -2,520 Descending Cleveland Center
06:06PM 41.6453 -80.6719 251° West 420 483 16,700 -2,400 Descending Cleveland Center
06:07PM 41.6053 -80.8275 251° West 407 468 14,500 -2,160 Descending Cleveland Center
06:08PM 41.5694 -80.9633 251° West 402 463 12,400 -2,100 Descending Cleveland Center
06:09PM 41.5336 -81.0936 250° West 393 452 10,300 -1,380 Descending Cleveland Center
06:10PM 41.5122 -81.1986 255° West 350 403 10,000 -180 Descending Cleveland Center
06:11PM 41.4906 -81.3511 259° West 356 410 10,000  Level Cleveland Center
06:12PM 41.4750 -81.4728 260° West 363 418 10,000  Level Cleveland Center
06:13PM 41.4533 -81.5833 255° West 334 384 10,000 -840 Level Cleveland Center
06:14PM 41.4128 -81.6739 239° Southwest 264 304 8,500 -2,160 Descending Cleveland Center
06:15PM 41.3703 -81.7453 232° Southwest 260 299 5,900 -2,460 Descending Cleveland Center
06:16PM 41.3194 -81.8356 233° Southwest 260 299 3,200 -2,160 Descending Cleveland Center